Tracking 19832 objects as of 25-Aug-2019
HD Live streaming from Space Station
objects crossing your sky now

DMSP 5D-2 F6 DEB

Track DMSP 5D-2 F6 DEB now!
10-day predictions


NORAD ID: 40919
Int'l Code: 1982-118M
Perigee: 762.1 km
Apogee: 784.4 km
Inclination: 98.5 °
Period: 100.2 minutes
Semi major axis: 7144 km
RCS: Unknown
Launch date: December 21, 1982
Source: United States (US)
Launch site: AIR FORCE WESTERN TEST RANGE (AFWTR)

Note: This is SATELLITE DEBRIS
aabbcc
Your satellite tracking list
Your tracking list is empty




NASA's NSSDC Master Catalog

Two Line Element Set (TLE):
1 40919U 82118M   19236.50573910  .00000889  00000-0  31003-3 0  9999
2 40919  98.5164  68.0436 0015641 279.5441  80.3978 14.37699532170905
Source of the keplerian elements: AFSPC